This is the latest recevied weather packets stored in our database for station/object W9GWP. If no packets are shown the sender has not sent any weather packets the latest 10 day(s).
| Time | Temp. | Humidity | Pressure | Rain* | Wind** | Luminosity | Snow |
|---|---|---|---|---|---|---|---|
| 1777878459 | 11.11° C | 77% | 1033.6 hPa | 0 mm | - | 0 W/m² | - |
| 1777877554 | 11.67° C | 76% | 1033.5 hPa | 0 mm | - | 0 W/m² | - |
| 1777876652 | 12.22° C | 75% | 1033.9 hPa | 0 mm | - | 0 W/m² | - |
| 1777875746 | 12.22° C | 74% | 1034 hPa | 0 mm | - | 0 W/m² | - |
| 1777874842 | 12.78° C | 73% | 1034.3 hPa | 0 mm | - | 0 W/m² | - |
| 1777873939 | 13.33° C | 72% | 1034.1 hPa | 0 mm | - | 0 W/m² | - |
| 1777873035 | 13.33° C | 70% | 1034.4 hPa | 0 mm | - | 0 W/m² | - |
| 1777872133 | 13.89° C | 69% | 1034.4 hPa | 0 mm | - | 0 W/m² | - |
| 1777871229 | 15° C | 66% | 1034.2 hPa | 0 mm | - | 0 W/m² | - |
| 1777870323 | 15° C | 66% | 1034.2 hPa | 0 mm | - | 0 W/m² | - |
| 1777869421 | 13.89° C | 69% | 1033.9 hPa | 0 mm | - | 0 W/m² | - |
| 1777868518 | 13.89° C | 70% | 1034.2 hPa | 0 mm | - | 0 W/m² | - |
| 1777867613 | 13.89° C | 69% | 1034.2 hPa | 0 mm | - | 0 W/m² | - |
| 1777866709 | 14.44° C | 68% | 1034.3 hPa | 0 mm | - | 0 W/m² | - |
| 1777865807 | 14.44° C | 67% | 1034.6 hPa | 0 mm | - | 0 W/m² | - |
| 1777864904 | 15° C | 66% | 1034.5 hPa | 0 mm | - | 0 W/m² | - |
| 1777864000 | 15° C | 66% | 1034.6 hPa | 0 mm | - | 0 W/m² | - |
| 1777863096 | 15° C | 65% | 1034.8 hPa | 0 mm | - | 0 W/m² | - |
| 1777862193 | 13.89° C | 68% | 1034.6 hPa | 0 mm | - | 0 W/m² | - |
| 1777861293 | 14.44° C | 67% | 1035 hPa | 0 mm | - | 0 W/m² | - |
| 1777860390 | 13.89° C | 68% | 1034.6 hPa | 0 mm | - | 0 W/m² | - |
| 1777859485 | 13.89° C | 68% | 1034.5 hPa | 0 mm | - | 0 W/m² | - |
| 1777858581 | 15° C | 65% | 1034.8 hPa | 0 mm | - | 0 W/m² | - |
| 1777857679 | 16.11° C | 61% | 1034.3 hPa | 0 mm | - | 0 W/m² | - |
| 1777856780 | 17.22° C | 56% | 1034 hPa | 0 mm | - | 0 W/m² | - |
* Rain latest hour (hover to see other rain measurements)
** Current wind speed in m/s (hover to see current wind gust speed)